Regional Weather Roundup
Issued by NWS Bismarck, ND

Home | Current Version | Previous Version | Text Only | Print | Product List | Glossary On
Versions: 1 2 3 4 5 6 7 8 9 10 11 12 13 14 15 16 17 18 19 20 21 22 23 24 25 26 27 28 29 30 31 32 33 34 35 36 37 38 39 40 41 42 43 44 45 46 47 48 49 50
000
ASUS43 KBIS 251310
RWRBIS

NWR BROADCAST TEXT
NATIONAL WEATHER SERVICE BISMARCK ND
800 AM CDT THU MAY 25 2017

NOTE: "FAIR" INDICATES FEW OR NO CLOUDS BELOW 12,000 FEET WITH NO
SIGNIFICANT WEATHER AND/OR OBSTRUCTIONS TO VISIBILITY.


CITY           SKY/WX    TMP DP  RH WIND       PRES   REMARKS
WILLISTON      FAIR      51  42  71 SW16G22   29.37R
MINOT          FAIR      53  49  86 SE5       29.37S
MINOT AFB      FAIR      53  51  92 S14       29.36S
BISMARCK       FAIR      54  47  77 S9        29.42R
DICKINSON      FAIR      47  45  93 W10       29.42R
GARRISON         N/A     50  49  96 S6        29.39R
HETTINGER ARPT FAIR      47  46  97 NW8       29.46R
JAMESTOWN      CLOUDY    52  44  74 SE16G24   29.46R
HAZEN          CLOUDY    54  50  87 W6        29.42R
LINTON           N/A     52  52 100 SE21G28   29.41S
MANDAN         FAIR      50  48  93 MISG      29.42S
STANLEY        FAIR      52  52 100 S12       29.39R
TIOGA          FAIR      50  50 100 SW16G24   29.37S
WATFORD CITY   FAIR      52  48  87 SW10      29.39R
$$

CITY           SKY/WX    TMP DP  RH WIND       PRES   REMARKS
GRAND FORKS    CLOUDY    54  45  71 SE20      29.54R
GRAND FORKS AF CLOUDY    53  44  72 S13G21    29.54R
DEVILS LAKE    CLOUDY    52  45  77 SE22      29.47S
FARGO          FAIR      54  45  71 SE17G25   29.54R
CAVALIER       FAIR      54  43  66 S15       29.53R
GRAFTON        FAIR      54  45  71 SE17      29.56R
GWINNER        SUNNY     52  46  82 MISG      29.49F
LANGDON        CLOUDY    52  45  76 SE23G35   29.50R
ROLLA          CLOUDY    48  46  93 S14G21    29.46S
$$

CITY           SKY/WX    TMP DP  RH WIND       PRES   REMARKS
ABERDEEN       FAIR      56  44  64 SE30G38   29.43F
MOBRIDGE       FAIR      55  45  68 SE10      29.37R
BUFFALO          N/A     48  40  73 NW13      29.42R
RAPID CITY     FAIR      54  40  59 NW13      29.50R
GLASGOW        CLOUDY    52  42  69 W23G30    29.30F
SIDNEY         FAIR      47  41  80 S14       29.39S
WOLF POINT     CLOUDY    52  42  69 SW23G32   29.34S
GLENDIVE       FAIR      49  35  58 SW16      29.43F
MILES CITY     FAIR      49  26  41 SW9       29.49R
BAKER          PTSUNNY   47  37  68 W10       29.48R
$$

CITY           SKY/WX    TMP DP  RH WIND       PRES   REMARKS
BILLINGS       PTSUNNY   49  26  41 W18G30    29.58R
GREAT FALLS    LGT RAIN  46  39  76 NW21G30   29.64R
REGINA         CLOUDY    45  36  70 SE12      29.22F
ESTEVAN        MOSUNNY   52  46  82 S15G22    29.31R
$$




USA.gov is the U.S. government's official web portal to all federal, state and local government web resources and services.